Regional Weather Roundup
Issued by NWS

Home | Current Version | Previous Version | Text Only | Print | Product List | Glossary On
Versions: 1 2 3 4 5 6 7 8 9 10 11 12 13 14 15 16 17 18 19 20 21 22 23 24 25 26 27 28 29 30 31 32 33 34 35 36 37 38 39 40 41 42 43 44 45 46 47 48 49 50
000
ASUS44 KEWX 042103
RWRTX
SOUTH TEXAS REGIONAL WEATHER ROUNDUP
NATIONAL WEATHER SERVICE AUSTIN/SAN ANTONIO TX
400 PM CDT TUE AUG 04 2015

NOTE: "FAIR" INDICATED FEW OR NO CLOUDS BELOW 12,000 FEET WITH NO
SIGNIFICANT WEATHER AND/OR OBSTRUCTIONS TO VISIBILITY.

* - THESE STATIONS ARE NOT NWS OR FAA STATIONS...AND ARE NOT SUBJECT
    TO NWS AND FAA QUALITY CONTROL.

TXZ171-172-183>190-042200-
TEXAS HILL COUNTRY AND EDWARDS PLATEAU

CITY           SKY/WX    TMP DP  RH WIND       PRES   REMARKS
JUNCTION       SUNNY     99  58  25 CALM      29.92F HX  98
*LLANO         SUNNY    100  63  28 SE8       29.94F HX 102
BURNET         PTSUNNY   97  64  33 SE7       29.95F HX  99
*HORSESHOE BAY MOSUNNY   99  64  31 S10G17    29.92F HX 101
*KERRVILLE     SUNNY     94  66  40 SE8       29.96F HX  97
*FREDERICKSBRG PTSUNNY   92  61  35 S8        29.96F HX  92
*ROCKSPRINGS   SUNNY     97  57  26 S9        30.01F HX  95
*BOERNE STAGE  SUNNY     91  64  40 SE6       29.97F HX  93
*CASTROVILLE   PTSUNNY   96  63  32 SE6       29.93F HX  98
HONDO          MOSUNNY   98  68  37 S12       29.93F HX 103
*UVALDE        SUNNY     97  68  39 E7        29.91F HX 102
DEL RIO        SUNNY    101  63  28 S7        29.87F HX 103
LAUGHLIN AFB   SUNNY     99  66  34 S8        29.88F HX 103
CARRIZO SPRGS  PTSUNNY  100  66  32 SE5       29.86F HX 104
$$

TXZ173-191>194-202-209-217>225-228-042200-
CENTRAL AND SOUTH CENTRAL TEXAS

CITY           SKY/WX    TMP DP  RH WIND       PRES   REMARKS
GEORGETOWN     MOSUNNY   97  66  36 SE12G18   29.91F HX 100
AUSTIN/BERGSTM PTSUNNY   97  68  38 S13       29.91F HX 102
AUSTIN/MABRY   MOSUNNY   96  67  38 SE12G22   29.92F HX 100
*AUSTIN/EXEC   SUNNY     95  70  43 S10       29.93F HX 101
*LAGO VISTA    MOSUNNY   97  64  32 S6G18     29.95F HX  99
SAN MARCOS     MOSUNNY   97  68  38 S12       29.93F HX 101
NEW BRAUNFELS  PTSUNNY   98  68  37 VRB6      29.91F HX 103
RANDOLPH AFB   SUNNY     94  66  39 SE10      29.92F HX  97
PT SAN ANTONIO PTSUNNY   97  66  36 SE7       29.90F HX 100
SAN ANTONIO    MOSUNNY   98  66  34 S9        29.92F HX 101
STINSON FIELD  SUNNY     97  67  37 S8        29.89F HX 101
*PLEASANTON    SUNNY    100  63  29 SE3       29.90F HX 102
*LA GRANGE     MOSUNNY   96  71  43 S9        29.91F HX 104
*GIDDINGS      MOSUNNY   95  65  37 S5        29.97F HX  98
*GONZALES      CLOUDY    96  71  43 CALM      29.91F HX 103
$$

TXZ163>164-176>182-195>201-210>213-226-227-235-042200-
SOUTHEAST TEXAS

CITY           SKY/WX    TMP DP  RH WIND       PRES   REMARKS
COLLEGE STN    PTSUNNY   94  70  45 S12       29.92F HX 100
*BRYAN         CLOUDY    93  71  47 S6        29.94F HX 100
*CALDWELL      SUNNY     93  66  40 SE6       29.96F HX  96
*CROCKETT        N/A     99  72  41 S6        29.96F HX 107
*BRENHAM       SUNNY     96  69  41 S10       29.93F HX 101
HUNTSVILLE     PTSUNNY   94  68  42 MISG      29.93F HX  98
CONROE         PTSUNNY   95  67  39 S10       29.93F HX  99
HOUSTON BUSH   PTSUNNY   88  77  69 VRB6      29.93F HX 100
HOUSTON HOBBY  PTSUNNY   93  73  52 S12G21    29.94F HX 102
*HOUSTON SW AP TSTM      80  76  89 NE5       29.96S
PEARLAND       MOSUNNY   92  75  57 SE12      29.96F HX 103
HOUSTON HOOKS  PTSUNNY   91  72  53 S6        29.94F HX  98
ELLINGTON FLD  PTSUNNY   90  79  70 SE13      29.95F HX 105
SUGAR LAND     CLOUDY    93  72  50 S5        29.94F HX 101
*HOUSTON EXEC  MOSUNNY   91  72  52 S8        29.96F HX  98
*CLEVELAND MUN MOSUNNY   95  75  51 SE3       29.95F HX 107
*WHARTON       MOSUNNY   92  71  51 SE10      29.94F HX  98
*COLUMBUS      FAIR      94  70  46 SE7       29.93F HX 100
*EAGLE LAKE    RAIN      81  76  84 NE9G17    29.94F
$$

TXZ214>216-236>238-042200-
THE UPPER TEXAS COAST

CITY           SKY/WX    TMP DP  RH WIND       PRES   REMARKS
*ORANGE        MOSUNNY   94  66  39 S9        29.96F HX  97
PORT ARTHUR    MOSUNNY   95  75  52 S13G18    29.94F HX 107
GALVESTON      MOSUNNY   92  77  61 S15       29.97F HX 105
ANGLETON       MOSUNNY   93  69  45 S14G22    29.95F HX  98
*BAY CITY      SUNNY     95  69  42 S10       29.94F HX 100
PALACIOS       SUNNY     91  73  55 S10       29.94F HX  99
$$

TXZ229>234-239>247-042200-
TEXAS COASTAL BEND AND RIO GRANDE PLAINS

CITY           SKY/WX    TMP DP  RH WIND       PRES   REMARKS
VICTORIA       MOSUNNY   96  71  44 SE14G22   29.92F HX 103
*BEEVILLE      PTSUNNY   95  76  53 S8        29.91F HX 109
ROCKPORT       SUNNY     92  77  61 SE15      29.93F HX 105
*PORT ARANSAS  SUNNY     89  79  72 SE12      29.93F HX 105
*PORT LAVACA   SUNNY     92  74  54 S13       29.94S HX 102
*INGLESIDE     MOSUNNY   94  76  55 SE14      29.92F HX 105
CORPUS CHRISTI MOSUNNY   91  78  65 SE14      29.91F HX 106
CORPUS NAS     MOSUNNY   90  78  68 SE17G26   29.92F HX 104
*ROBSTOWN      MOSUNNY   96  76  52 SE15G23   29.91F HX 110
ALICE          MOSUNNY   97  75  49 E13G22    29.88F HX 109
KINGSVILLE NAS MOSUNNY   95  80  61 SE20G25   29.89F HX 114
COTULLA        MOSUNNY  100  64  30 SE8       29.87F HX 102
*FAITH RANCH     N/A    104  61  24 E9G16     29.86F HX 105
LAREDO         SUNNY    104  58  21 E16G23    29.86F HX 104
$$

TXZ248>255-042200-
DEEP SOUTH TEXAS

CITY           SKY/WX    TMP DP  RH WIND       PRES   REMARKS
BROWNSVILLE    MOSUNNY   93  77  59 SE20      29.90F HX 107
PORT ISABEL    MOSUNNY   91  77  63 SE23G31   29.90S HX 104
*SOUTH PADRE   SUNNY     90  81  74 SE12      29.92S HX 108
HARLINGEN      PTSUNNY   98  76  49 SE17G30   29.87F HX 112
*HEBBRONVILLE    N/A    100  61  27 E16G22    29.90F HX 100
MCALLEN        MOSUNNY  103  70  34 SE14G23   29.86F HX 111
*WESLACO       MOSUNNY   99  69  37 SE13G23   29.87F HX 105
FALFURRIAS     MOSUNNY  102  65  30 S13       29.86F HX 105
EDINBURG       MOSUNNY  101  68  34 S17       29.86F HX 106
*ZAPATA        SUNNY    104  51  16 SE9G17    29.85F HX 101
$$

TXZ213>215-236>238-242>244-246-247-251-254-255-042200-
CMAN STATIONS

STATION/POSITION TIME  TEMP    WIND        PRES    WAVE
                       AIR SEA DIR/SP/G            HT/PER
                 (UTC) (F)     (DEG/KT/KT) (MB)    (FT/S)
$$

GMZ080-GMZ150>470-042200-
OFFSHORE BUOY REPORTS

STATION/POSITION TIME  TEMP    WIND        PRES    WAVE
                       AIR SEA DIR/SP/G            HT/PER
                 (UTC) (F)     (DEG/KT/KT) (MB)    (FT/S)
$$



USA.gov is the U.S. government's official web portal to all federal, state and local government web resources and services.